Location: Squamish
(49.7000°N, 123.1500°W)
Time: 05:47:48
(UTC-08:00)

Daily predictions for brighter satellites

Satellite Brightness Start Highest point End
(mag) Time Altitude Azimuth Time Altitude Azimuth Time Altitude Azimuth
Cosmos 2278 Rocket 4.5 02:39:33 19° NNE 02:39:33 19° NNE 02:41:06 10° NNE
Cosmos 2344 4.4 02:39:26 51° N 02:39:26 51° N 02:47:35 10° NE
CZ-2D R/B 4.5 02:41:36 10° NNE 02:43:00 18° NNE 02:43:00 18° NNE
Resurs 1-4 Rocket 4.5 02:47:06 10° NNE 02:48:27 18° NNE 02:48:27 18° NNE
ADEOS Rocket 4.0 02:57:26 10° NNE 03:02:35 47° NE 03:02:35 47° NE
ATLAS 5 CENTAUR R/B 4.5 03:22:10 13° ESE 03:22:25 13° ESE 03:24:34 10° E
Okean O Rocket 4.0 03:26:36 10° NNE 03:28:22 21° NE 03:28:22 21° NE
ATLAS CENTAUR R/B 3.8 03:52:58 46° SSE 03:52:58 46° SSE 04:01:50 10° SE
MOS 1 Rocket 4.0 03:50:57 10° NNE 03:55:41 61° NE 03:55:41 61° NE
Cosmos 2266 Rocket 4.1 03:51:45 10° N 03:57:57 70° ENE 04:04:00 10° SSE
Cosmos 2180 Rocket 4.5 03:59:03 76° N 03:59:03 76° N 04:04:47 10° N
Lacrosse 4 Rocket 3.9 04:07:02 14° N 04:07:02 14° N 04:07:47 10° NNE
Iridium 4 Rocket 4.1 03:59:24 10° N 04:03:46 55° N 04:03:46 55° N
Cosmos 2279 Rocket 4.2 04:07:40 58° NNW 04:07:40 58° NNW 04:12:50 10° N
ADEOS II 2.4 04:08:34 10° NNE 04:13:49 63° ESE 04:14:46 53° SSE
Cosmos 1371 Rocket 4.4 04:18:11 54° SE 04:18:57 60° ESE 04:24:03 10° NNE
Thor Agena Rocket 4.3 04:13:57 10° SE 04:18:58 51° ENE 04:23:58 10° N
Cosmos 2278 Rocket 4.0 04:21:24 18° NNW 04:21:24 18° NNW 04:24:32 10° N
Cosmos 1908 Rocket 4.4 04:16:54 10° N 04:21:17 50° ENE 04:25:38 10° SSE
IRAS Rocket 4.1 04:16:36 10° NNE 04:22:08 87° ESE 04:22:41 73° S
Cosmos 2369 Rocket 2.3 04:21:57 60° S 04:22:54 74° ESE 04:28:35 10° NNE
Okean-O 4.2 04:19:02 10° NNE 04:23:05 33° E 04:26:50 11° SSE
PSLV R/B 4.1 04:21:00 10° NNE 04:24:20 53° NE 04:24:20 53° NE
Cosmos 1933 4.0 04:26:46 53° E 04:26:46 53° E 04:30:35 10° NNE
CZ-2D R/B 4.0 04:22:27 10° N 04:24:20 18° NNW 04:24:20 18° NNW
Resurs 1-4 Rocket 4.0 04:27:52 10° N 04:29:33 16° NNW 04:29:33 16° NNW
CZ-4B R/B 4.4 04:27:42 10° N 04:29:52 29° N 04:29:52 29° N
Cosmos 921 Rocket 3.2 04:35:46 63° NNE 04:35:46 63° NNE 04:39:25 10° NNE
CZ-4C R/B 4.5 04:32:47 10° SSE 04:36:42 21° ESE 04:40:56 10° ENE
Lacrosse 5 rocket 2.7 04:37:01 28° NNE 04:37:01 28° NNE 04:39:59 10° ENE
Cosmos 1833 4.0 04:34:37 21° NNW 04:38:27 88° WSW 04:44:04 10° SSE
USA 234 3.6 04:32:16 10° ENE 04:38:44 60° SE 04:41:49 32° SSW
Lacrosse 5 3.2 04:39:56 23° S 04:42:11 34° SE 04:46:44 10° ENE
Cosmos 407 Rocket 3.4 04:41:01 10° NNW 04:46:24 73° WSW 04:51:42 10° SSE
Okean 2 Rocket 4.4 04:42:29 10° N 04:46:41 41° ENE 04:50:50 10° SE
Cosmos 676 Rocket 4.0 04:43:41 10° NNW 04:49:01 88° ENE 04:54:20 10° SSE
ADEOS Rocket 4.0 04:43:24 10° N 04:49:23 31° WNW 04:49:32 31° WNW
ERS-2 2.6 04:48:03 10° NNE 04:51:00 53° N 04:51:00 53° N
Cosmos 1862 Rocket 3.5 04:57:15 58° WNW 04:57:15 58° WNW 05:01:21 10° N
IRS-1C Rocket 4.3 04:54:34 10° N 04:59:40 50° WNW 05:00:34 45° W
Meteor 1-14 Rocket 4.3 04:58:43 10° N 05:04:38 84° ENE 05:10:23 10° SSE
Cosmos 1867 3.6 05:03:25 43° WSW 05:05:05 63° NW 05:10:33 10° NE
CZ-4B R/B 3.4 04:59:46 10° N 05:05:10 52° WNW 05:07:13 35° WSW
Cosmos 1703 Rocket 3.8 05:01:05 10° S 05:05:23 69° E 05:09:46 10° NNE
ATLAS 5 CENTAUR R/B 1.9 05:03:45 32° SSW 05:06:03 76° SE 05:11:22 10° NE
Cosmos 2263 4.1 05:03:27 31° SW 05:06:12 76° WNW 05:11:51 10° NNE
Okean O Rocket 2.7 05:03:02 10° N 05:05:51 28° NW 05:05:51 28° NW
Meteor 1-28 Rocket 4.3 05:03:39 10° SE 05:07:12 44° ENE 05:10:48 10° N
Cosmos 1140 Rocket 3.5 05:04:42 10° NNW 05:09:57 83° ENE 05:15:12 10° SSE
Cosmos 1190 Rocket 4.4 05:11:28 36° W 05:12:18 39° WSW 05:17:10 10° S
Cosmos 1943 Rocket 2.1 05:09:23 19° SSW 05:13:30 90° WSW 05:19:06 10° NNE
Meteor 2-10 Rocket 3.5 05:10:33 10° S 05:15:32 79° E 05:20:39 10° NNE
Cosmos 1553 Rocket 4.4 05:13:08 10° S 05:19:15 68° E 05:25:30 10° NNE
Cosmos 614 Rocket 4.0 05:15:57 10° NNW 05:21:04 80° ENE 05:26:12 10° SSE
SJ-6F 4.4 05:18:17 10° NNE 05:22:29 87° ESE 05:26:37 10° SSW
Cosmos 972 4.3 05:22:21 10° SSW 05:27:16 81° WNW 05:32:35 10° NNE
Cosmos 2221 Rocket 3.6 05:24:47 10° S 05:29:21 86° W 05:33:57 10° N
COSMO-SKYMED 1 2.4 05:26:10 10° S 05:30:30 73° WSW 05:34:52 10° NNW
Cosmos 1850 Rocket 4.1 05:25:37 10° NNW 05:31:00 82° ENE 05:36:20 10° SSE
Meteor 1-31 Rocket 2.9 05:27:41 10° N 05:31:30 50° WNW 05:34:06 18° SW
Cosmos 1624 Rocket 4.3 05:28:43 24° WSW 05:31:41 47° WNW 05:36:50 10° NNE
Abrixas 2.9 05:31:39 39° SSW 05:32:19 50° SSE 05:35:08 10° E
Cosmos 2056 Rocket 3.7 05:29:56 23° WSW 05:32:54 48° WNW 05:37:58 10° NNE
Meteor 1-26 Rocket 4.1 05:27:53 10° SSW 05:33:35 73° WNW 05:39:12 10° N
Meteor 1-25 Rocket 4.2 05:32:19 10° NNW 05:38:09 76° W 05:43:58 10° S
Cosmos 1954 Rocket 4.3 05:34:49 10° NW 05:39:53 46° WSW 05:44:56 10° S
NOAA 6 4.0 05:34:53 10° NNE 05:40:04 80° WNW 05:45:13 10° SSW
Ariane Rocket 3.8 05:39:35 10° NNE 05:44:36 54° E 05:49:34 10° S
Cosmos 2297 Rocket 3.5 05:39:34 10° NNW 05:44:57 41° NE 05:50:15 10° ESE
CZ-4B R/B 4.3 05:44:06 10° N 05:47:42 37° WNW 05:51:27 10° SW
Tiangong 1 3.6 05:47:01 10° SSW 05:48:37 14° SSE 05:50:14 10° SE
Cosmos 1420 Rocket 4.2 05:45:32 10° SSW 05:50:41 74° ESE 05:55:54 10° NNE
ADEOS II 3.2 05:49:01 10° N 05:53:08 24° WNW 05:55:43 16° W
Meteor 1-11 Rocket 4.5 05:48:12 10° N 05:54:09 61° ENE 05:59:59 10° SSE
Cosmos 2219 3.3 05:50:57 10° NW 05:56:30 54° WSW 06:01:58 10° S
BREEZE M DEB (TANK) 3.8 05:45:23 15° WSW 05:56:40 86° S 06:00:48 10° E
Thor Agena Rocket 4.4 05:54:10 10° SSW 05:58:32 26° W 06:02:52 10° NW
Okean-O 3.4 05:55:37 10° N 05:59:32 31° WNW 06:03:26 10° SW
Meteor 1-10 Rocket 4.4 05:56:04 10° S 06:01:37 78° E 06:07:17 10° NNE
Okean 1-7 3.2 05:58:06 10° SSW 06:02:13 47° WNW 06:06:22 10° N
Cosmos 1745 Rocket 4.0 05:57:36 10° NNW 06:03:37 55° W 06:09:33 10° SSW
Cosmos 1782 Rocket 4.5 06:00:34 10° NNW 06:04:22 27° W 06:08:07 10° SW
Cosmos 2227 Rocket 2.6 05:59:06 10° NNW 06:04:47 67° ENE 06:10:27 10° SE
Cosmos 2369 Rocket 3.3 06:03:46 14° W 06:07:31 26° NW 06:12:15 10° NNE
Cosmos 1536 4.3 06:04:04 10° N 06:07:52 40° ENE 06:11:40 10° SE
Helios 1B rocket 4.2 06:07:07 10° SE 06:10:53 36° ENE 06:14:41 10° N
Cosmos 1386 Rocket 4.4 06:06:25 10° NNW 06:12:21 61° W 06:18:20 10° S
Cosmos 1452 Rocket 3.7 06:09:14 10° SW 06:14:21 50° WNW 06:19:31 10° NNE
Lacrosse 5 rocket 1.1 06:12:46 10° NW 06:16:25 78° NNE 06:20:01 10° ESE
Cosmos 1300 Rocket 3.7 06:12:08 10° N 06:16:37 82° E 06:21:02 10° SSE
Cosmos 1741 Rocket 4.4 06:16:05 10° NW 06:21:00 42° WSW 06:25:56 10° S
USA 234 3.4 06:15:22 10° ENE 06:21:49 64° NNW 06:28:15 10° W
Cosmos 1656 Rocket 3.8 06:16:21 10° SW 06:21:58 60° WNW 06:27:37 10° NNE
CZ-4C R/B 2.3 06:18:54 10° SW 06:24:20 82° NW 06:30:38 10° NE
Okean 2 Rocket 4.2 06:21:04 10° NW 06:24:31 23° W 06:27:58 10° SW
Lacrosse 5 1.9 06:19:52 10° WSW 06:24:56 68° NNW 06:30:01 10° NE
USA 81 4.4 06:30:29 10° SSW 06:35:32 45° WNW 06:40:36 10° N
Cosmos 1674 Rocket 3.6 06:31:54 10° SSW 06:36:18 80° W 06:40:46 10° N
